Weather observations for the past three days for
Santa Barbara, Santa Barbara Municipal Airport
Metric (Imperial)
Date Time (pdt) Wind (kph) Vis. (km) Weather Sky Cond. Temperature (ºC) Relative Humidity Wind Chill (°C) Heat Index (°C) Pressure Precipitation (cm)
Air Dwpt 6 hour altimeter (cm) sea level (mb) 1 hr 3 hr 6 hr
Max. Min.
04 18:53 W 19 16.09 Overcast OVC050 15.6 9.4 67% 76.07 1014.0
04 17:53 W 20 16.09 Mostly Cloudy BKN085 17.2 9.4 60% 76.1 1014.5
04 16:53 W 20 16.09 Overcast OVC075 16.7 9.4 18.9 16.7 62% 76.1 1014.6
04 15:53 W 22 G 35 16.09 Overcast BKN075 OVC090 17.8 10 60% 76.12 1014.8
04 14:53 W 22 G 35 16.09 Mostly Cloudy BKN090 18.9 8.9 52% 76.15 1015.3
04 13:53 W 20 16.09 Mostly Cloudy BKN090 18.3 9.4 56% 76.2 1015.8
04 12:53 W 24 G 39 16.09 Mostly Cloudy BKN085 18.3 10 59% 76.17 1015.6
04 11:53 SW 24 G 35 16.09 Partly Cloudy SCT080 18.3 8.9 54% 76.17 1015.5
04 10:53 W 22 16.09 Fair CLR 18.3 8.3 19.4 8.3 52% 76.15 1015.3
04 09:53 W 13 16.09 Partly Cloudy SCT065 18.9 7.2 47% 76.12 1014.9
04 08:53 W 19 16.09 Partly Cloudy SCT075 16.1 8.9 63% 76.15 1015.0
04 07:53 W 6 14.48 Fair CLR 14.4 8.3 67% 76.12 1014.9
04 06:53 W 6 16.09 Fair CLR 9.4 6.1 80% 76.1 1014.4
04 05:53 Calm 16.09 Fair CLR 8.9 6.1 83% 76.07 1014.2
04 04:53 Calm 16.09 Fair CLR 9.4 6.1 15.6 8.9 80% 76.05 1013.9
04 03:53 Calm 16.09 Fair CLR 10.6 6.7 77% 76.07 1014.0
04 02:53 N 7 16.09 Fair CLR 11.1 7.2 77% 76.1 1014.3
04 01:53 SE 7 16.09 Partly Cloudy SCT070 13.3 6.7 65% 76.12 1014.7
04 00:53 Calm 16.09 Overcast OVC070 14.4 6.1 58% 76.15 1015.1
03 23:53 NE 7 16.09 Overcast OVC065 14.4 7.8 65% 76.12 1014.7
03 22:53 SW 11 16.09 Overcast OVC065 15.6 7.8 17.2 15.6 60% 76.12 1014.7
03 21:53 N 7 16.09 Overcast OVC060 16.1 6.7 54% 76.1 1014.5
03 20:53 N 15 16.09 Overcast OVC060 16.7 7.2 54% 76.05 1013.8
03 19:53 Calm 16.09 Overcast BKN047 OVC060 16.1 10 67% 76 1013.2
03 18:53 W 17 16.09 Overcast OVC041 16.1 10 67% 76 1013.2
03 17:53 W 17 16.09 Overcast BKN050 OVC060 16.1 9.4 65% 76 1013.1
03 16:53 W 19 16.09 Overcast SCT040 OVC049 17.2 8.9 18.9 16.1 58% 76 1013.1
03 15:53 SW 13 16.09 A Few Clouds FEW042 FEW055 18.3 10.6 61% 76 1013.1
03 14:53 S 9 16.09 Mostly Cloudy BKN047 17.2 9.4 60% 76.05 1013.7
03 13:53 S 13 16.09 Overcast OVC049 17.2 9.4 60% 76.05 1014.0
03 12:53 SE 17 16.09 Overcast OVC043 16.7 11.1 70% 76.07 1014.2
03 11:53 SE 15 16.09 Overcast BKN043 OVC050 16.1 11.1 72% 76.1 1014.5
03 10:53 SE 15 16.09 Overcast BKN025 OVC040 16.1 11.1 16.7 13.3 72% 76.1 1014.4
03 09:53 E 7 16.09 Overcast BKN025 OVC040 15 11.1 78% 76.1 1014.4
03 08:53 SE 11 16.09 Overcast SCT011 BKN022 OVC027 14.4 11.1 81% 76.05 1014.0
03 07:53 NE 9 16.09 Mostly Cloudy SCT011 BKN014 13.9 11.1 83% 76.02 1013.6
03 06:53 Calm 16.09 Mostly Cloudy BKN014 13.9 11.1 83% 75.97 1012.9
03 05:53 S 7 16.09 Overcast SCT014 SCT021 OVC030 13.9 11.1 83% 75.95 1012.5
03 04:53 SE 9 16.09 Overcast OVC026 13.9 11.7 14.4 13.9 87% 75.92 1012.2
03 03:53 SE 9 16.09 Overcast OVC025 13.9 11.7 87% 75.95 1012.5
03 02:53 E 9 16.09 Overcast OVC026 14.4 11.1 81% 75.92 1012.1
03 01:53 E 7 16.09 Partly Cloudy SCT025 13.9 11.1 83% 75.95 1012.5
03 00:53 E 6 16.09 Overcast OVC023 14.4 11.1 81% 75.97 1012.9
02 23:53 SE 6 16.09 Overcast OVC022 13.9 11.1 83% 75.97 1012.7
02 22:53 SE 9 16.09 Mostly Cloudy BKN024 14.4 12.2 18.3 12.8 87% 75.92 1012.3
02 21:53 E 7 16.09 Fair CLR 12.8 11.1 90% 75.9 1011.9
02 20:53 Calm 16.09 Overcast OVC018 14.4 12.2 87% 75.87 1011.3
02 19:53 W 9 12.87 Partly Cloudy SCT025 14.4 11.7 84% 75.82 1010.8
02 18:53 W 19 16.09 Fair CLR 15.6 11.7 78% 75.79 1010.5
02 17:53 W 15 16.09 Fair CLR 16.7 12.8 78% 75.84 1011.0
02 16:53 SW 15 16.09 Fair CLR 18.3 12.8 18.3 14.4 70% 75.84 1011.2
02 15:53 W 11 16.09 Overcast OVC016 16.7 12.8 78% 75.9 1011.9
02 14:53 Vrbl 6 16.09 Overcast BKN012 OVC016 16.7 12.8 78% 75.97 1012.9
02 13:53 W 11 6.44 Overcast with Haze BKN006 OVC013 16.1 12.8 81% 76.05 1014.0
02 12:53 W 9 8.05 Overcast with Haze BKN005 OVC009 15.6 12.8 84% 76.1 1014.4
02 11:53 SW 9 4.83 Fog/Mist BKN005 OVC014 15.6 13.3 86% 76.12 1014.9
02 10:53 S 9 4.02 Fog/Mist OVC005 14.4 13.3 15 13.9 93% 76.15 1015.1
02 09:53 SE 11 4.02 Fog/Mist OVC003 14.4 13.3 93% 76.12 1014.9
02 08:53 E 11 4.02 Fog/Mist OVC005 14.4 13.3 93% 76.12 1014.9
02 07:53 S 6 4.83 Fog/Mist OVC005 14.4 12.8 90% 76.12 1014.8
02 06:53 E 7 11.27 Overcast OVC008 13.9 12.2 90% 76.02 1013.4
02 05:53 NE 9 12.87 Overcast OVC008 13.9 12.2 90% 76.05 1013.7
02 04:53 E 7 12.87 Mostly Cloudy BKN009 BKN020 13.9 12.2 14.4 12.8 90% 76.05 1013.7
02 03:53 E 7 11.27 Fair CLR 12.8 12.2 96% 76 1013.2
02 02:53 E 9 12.87 Overcast BKN007 OVC010 13.9 12.2 90% 75.97 1012.8
02 01:53 E 15 12.87 Overcast OVC007 13.9 12.8 93% 76 1013.3
02 00:53 E 19 11.27 Overcast OVC007 13.9 12.8 93% 76 1013.1
01 23:53 E 7 11.27 A Few Clouds FEW007 13.9 12.8 93% 76 1013.0
01 22:53 SE 9 9.66 Fog/Mist CLR 13.9 12.2 17.8 13.3 90% 75.97 1012.7
01 21:53 Calm 12.87 Fair CLR 13.9 12.2 90% 75.97 1012.7
01 20:53 E 6 12.87 Fair CLR 14.4 12.2 87% 75.95 1012.4
01 19:53 Calm 11.27 Fair CLR 14.4 12.2 87% 75.92 1012.2
Date Time (pdt) Wind (kph) Vis. (km) Weather Sky Cond. Air Dwpt Max. Min. Relative Humidity Wind Chill (°C) Heat Index (°C) altimeter (cm) sea level (mb) 1 hr 3 hr 6 hr
6 hour
Temperature (ºC) Pressure Precipitation (cm)